Regional Weather Roundup
Issued by NWS

Home | Current Version | Previous Version | Text Only | Print | Product List | Glossary On
Versions: 1 2 3 4 5 6 7 8 9 10 11 12 13 14 15 16 17 18 19 20 21 22 23 24 25 26 27 28 29 30 31 32 33 34 35 36 37 38 39 40 41 42 43 44 45 46 47 48 49 50
000
ASUS43 KIND 122359
RWRIN

WEATHER ROUNDUP FOR INDIANA
NATIONAL WEATHER SERVICE INDIANAPOLIS IN
700 PM EST TUE DEC 12 2017

NOTE: "FAIR" INDICATES FEW OR NO CLOUDS BELOW 12,000 FEET WITH NO
SIGNIFICANT WEATHER AND/OR OBSTRUCTIONS TO VISIBILITY.

* - STATION DOES NOT REPORT WEATHER SUCH AS PRECIPITATION OR FOG.

+ - STATION NOT QUALITY CONTROLLED BY THE NATIONAL WEATHER SERVICE.
    USE DATA WITH CAUTION...ESPECIALLY DEWPOINT AND RELATIVE
    HUMIDITY OBSERVATIONS.

INZ001>003-010>013-019-020-130100-
NORTHWEST INDIANA

CITY           SKY/WX    TMP DP  RH WIND       PRES   REMARKS
GARY /AIRPORT/ PTCLDY    19   7  58 W14       30.03F WCI   6
KNOX *+        CLOUDY    19   9  63 W8        30.00F WCI   9
LA PORTE +     CLOUDY    20  10  64 W7        29.99S WCI  11
6HR MIN TEMP:  20; 6HR MAX TEMP:  22;

MICHIGAN CITY+ CLOUDY    23  10  58 W9        30.00S WCI  13
MONTICELLO +   CLEAR     18   7  60 W8        30.02S WCI   8
6HR MIN TEMP:  18; 6HR MAX TEMP:  25;

RENSSELAER +   CLEAR     19   5  53 W6        30.04S WCI  11

$$

LMZ046-743>745-130100-
SOUTHERN LAKE MICHIGAN

STATION/POSITION TIME  TEMP    WIND        PRES    WAVE
                       AIR SEA DIR/SP/G            HT
                 (UTC) (F)     (DEG/KT/KT) (MB)    (FT)
BURNS HARBOR     2340   23     310/ 17/ 20 1016.3F
MICHIGAN CITY    2330   23     280/ 19/ 22   N/A

$$

INZ004-005-014>016-021>024-130100-
NORTH CENTRAL INDIANA

CITY           SKY/WX    TMP DP  RH WIND       PRES   REMARKS
ELKHART        CLOUDY    21  10  63 W12G21    29.96S WCI   9
GOSHEN         CLOUDY    20  12  71 W15       29.96S WCI   6
6HR MIN TEMP:  20; 6HR MAX TEMP:  22; 6HR PCP: TRACE;

PERU/GRISSOM   CLEAR     18   7  62 CALM      30.00S
6HR MIN TEMP:  18; 6HR MAX TEMP:  26;

SOUTH BEND     CLOUDY    20  12  71 NW9       29.98S WCI   9
6HR MIN TEMP:  19; 6HR MAX TEMP:  23; 6HR PCP:  0.04;

WARSAW +       CLOUDY    19  12  73 W15       29.96F WCI   5

$$

INZ006>009-017-018-025>027-130100-
NORTHEAST INDIANA

CITY           SKY/WX    TMP DP  RH WIND       PRES   REMARKS
AUBURN +       FLURRIES  21  16  79 W13       29.95S WCI   9
FORT WAYNE     CLOUDY    20  12  71 W16       29.97R WCI   6
6HR MIN TEMP:  20; 6HR MAX TEMP:  23; 6HR PCP: TRACE;

KENDALLVILLE + FLURRIES  19  15  83 W8        29.93S WCI   9

$$

INZ028-029-035-036-043>045-051>053-130100-
WEST CENTRAL INDIANA

CITY           SKY/WX    TMP DP  RH WIND       PRES   REMARKS
CRAWFORDSVL +  CLEAR     18   7  62 W7          N/A  WCI   8
6HR MIN TEMP:  18; 6HR MAX TEMP:  25;

GREENCASTLE +  CLEAR     23   5  46 CALM      30.05S
LAFAYETTE      CLEAR     20   7  57 NW9       30.05R WCI   9
6HR MIN TEMP:  19; 6HR MAX TEMP:  26;

TERRE HAUTE    CLEAR     24   4  42 NW5       30.08R WCI  18
6HR MIN TEMP:  24; 6HR MAX TEMP:  29;


$$

INZ030>032-037>040-046>048-054>057-064-065-130100-
CENTRAL INDIANA

CITY           SKY/WX    TMP DP  RH WIND       PRES   REMARKS
COLUMBUS       CLEAR     25   3  39 NW10      30.05R WCI  15
FRANKFORT +    CLEAR     22  10  62 NW8       30.03F WCI  12
6HR MIN TEMP:  21; 6HR MAX TEMP:  29;

INDIANAPOLIS   PTCLDY    21   7  54 W10       30.03S WCI  10
6HR MIN TEMP:  21; 6HR MAX TEMP:  28;

-EAGLE CREEK   CLEAR     23   7  50 W13       30.02S WCI  11
6HR MIN TEMP:  23; 6HR MAX TEMP:  27;

KOKOMO +       CLEAR     18   8  65 W7        30.01S WCI   9
6HR MIN TEMP:  18; 6HR MAX TEMP:  27;

MT COMFORT *+  CLEAR     21  10  63 W7        30.01S WCI  13
SHELBYVILLE    CLEAR     24   6  46 NW14      30.02R WCI  12
6HR MIN TEMP:  23; 6HR MAX TEMP:  29;


$$

INZ033-034-041-042-049-050-058-059-130100-
EAST CENTRAL INDIANA

CITY           SKY/WX    TMP DP  RH WIND       PRES   REMARKS
MUNCIE         CLEAR     21   8  57 NW12      29.99R WCI   9
6HR MIN TEMP:  21; 6HR MAX TEMP:  29;

RICHMOND +     PTCLDY    19   9  63 NW16      29.97R WCI   5

$$

INZ060-061-067>069-081>083-085>088-130100-
SOUTHWEST INDIANA

CITY           SKY/WX    TMP DP  RH WIND       PRES   REMARKS
EVANSVILLE     CLEAR     29   9  43 W5        30.12R WCI  24
6HR MIN TEMP:  28; 6HR MAX TEMP:  34;

HUNTINGBURG +  CLEAR     24  12  60 W6        30.10R WCI  17
6HR MIN TEMP:  24; 6HR MAX TEMP:  32;


$$

INZ062-063-066-070>080-084-089>092-130100-
SOUTH CENTRAL AND SOUTHEAST INDIANA

CITY           SKY/WX    TMP DP  RH WIND       PRES   REMARKS
BLOOMINGTON    CLEAR     24   5  44 NW8       30.04S WCI  15
6HR MIN TEMP:  24; 6HR MAX TEMP:  29;

SEYMOUR +      CLEAR     25   7  46 W7        30.05R WCI  17

$$





USA.gov is the U.S. government's official web portal to all federal, state and local government web resources and services.